"2010-03-23 00:00:00",1785879,7.967,327,3.179,0.54,13.01,105.7595,14.02,15,12.23,0,110.5,13.29,14.82,289.0
"2010-03-23 00:00:30",1785880,8.87,329.7,2.654,0.238,13.11,105.7595,14.02,15.03,11.89,0,110.5,13.29,14.82,291.7
"2010-03-23 00:01:00",1785881,8.46,328.6,2.279,0.396,13.24,105.7614,14.02,15.05,11.69,0,110.5,13.29,14.82,290.6
"2010-03-23 00:01:30",1785882,8.22,330,1.905,0.422,13.27,105.7701,14.04,15.05,11.29,0,110.5,13.29,14.85,292.0
"2010-03-23 00:02:00",1785883,7.355,328.6,1.687,0.464,13.27,105.7678,14.04,15.05,11.41,0,110.5,13.29,14.84,290.6
"2010-03-23 00:02:30",1785884,8.02,329.3,2.6,0.324,13.44,105.7689,14.04,15.05,11.86,0,110.5,13.3,14.84,291.3
"2010-03-23 00:03:00",1785885,8.74,328.2,2.444,0.163,13.37,105.7728,14.05,15.07,12.14,0,110.5,13.3,14.85,290.2
"2010-03-23 00:03:30",1785886,9.41,328.6,4.403,0.961,15,105.7761,14.06,15.23,11.9,0,110.5,13.26,14.86,290.6
"2010-03-23 00:04:00",1785887,8.96,324.3,6.849,1.157,14.35,105.781,14.07,15.21,11.47,0,110.5,13.26,14.87,286.3
"2010-03-23 00:04:30",1785888,8.8,331.6,7.826,1.499,14.74,105.7828,14.08,15.11,11.02,0,110.5,13.25,14.88,293.6
"2010-03-23 00:05:00",1785889,7.767,327.2,2.054,0.243,13.1,105.7757,14.06,15.07,10.94,0,110.5,13.29,14.86,289.2
"2010-03-23 00:05:30",1785890,7.746,329.1,1.93,0.33,13.14,105.7748,14.06,15.08,10.88,0,110.5,13.29,14.86,291.1
"2010-03-23 00:06:00",1785891,7.492,328.8,1.809,0.275,13.17,105.7755,14.06,15.08,10.8,0,110.5,13.29,14.86,290.8
"2010-03-23 00:06:30",1785892,7.556,326.3,3.287,0.225,13.22,105.77,14.04,15.09,10.76,0,110.5,13.29,14.84,288.3
"2010-03-23 00:07:00",1785893,7.774,326.8,2.805,0.544,13.25,105.7687,14.04,15.09,10.87,0,110.5,13.29,14.84,288.8
"2010-03-23 00:07:30",1785894,8.86,328.8,1.103,0.177,13.24,105.7696,14.04,15.08,11.17,0,110.5,13.29,14.84,290.8
"2010-03-23 00:08:00",1785895,8.46,327.5,2.477,0.471,13.35,105.7696,14.04,15.08,11.36,0,110.5,13.29,14.84,289.5
"2010-03-23 00:08:30",1785896,8.49,331.3,4.447,0.384,13.41,105.7714,14.05,15.08,11.53,0,110.5,13.29,14.85,293.3
"2010-03-23 00:09:00",1785897,8.09,329.8,2.941,0.273,13.76,105.7714,14.05,15.17,11.45,0,110.5,13.29,14.85,291.8
"2010-03-23 00:09:30",1785898,9.72,339.6,5.805,1.328,17.06,105.772,14.05,15.35,11.6,0,110.5,13.25,14.85,301.6
"2010-03-23 00:10:00",1785899,9.62,338.4,8.21,1.261,15.83,105.7744,14.05,15.17,11.48,0,110.5,13.25,14.86,300.4
"2010-03-23 00:10:30",1785900,7.753,328.1,2.45,0.49,12.55,105.7717,14.05,15.07,11.33,0,110.5,13.29,14.85,290.1
"2010-03-23 00:11:00",1785901,8.34,331.8,1.881,0.371,12.49,105.7742,14.05,15.06,11.16,0,110.5,13.29,14.86,293.8
"2010-03-23 00:11:30",1785902,8.13,332.8,1.515,0.27,12.57,105.7651,14.03,15.05,11.18,0,110.5,13.29,14.83,294.8
"2010-03-23 00:12:00",1785903,8.27,330,1.486,0.164,12.7,105.7596,14.02,15.04,11.3,0,110.5,13.29,14.82,292.0
"2010-03-23 00:12:30",1785904,8.22,331.8,2.038,0.304,12.92,105.7509,13.99,15.02,11.34,0,110.5,13.29,14.80,293.8
"2010-03-23 00:13:00",1785905,8.27,331.7,2.322,0.46,13.11,105.7443,13.98,15.03,11.55,0,110.5,13.29,14.78,293.7
"2010-03-23 00:13:30",1785906,8.4,329.1,2.212,0.398,13.23,105.7459,13.98,15.03,11.89,0,110.5,13.29,14.78,291.1
"2010-03-23 00:14:00",1785907,7.878,328.3,2.115,0.329,13.3,105.7462,13.98,15.02,11.56,0,110.5,13.3,14.78,290.3
"2010-03-23 00:14:30",1785908,7.232,328.6,3.061,0.246,13.47,105.7465,13.98,15.03,11.3,0,110.5,13.3,14.78,290.6
"2010-03-23 00:15:00",1785909,8.99,335.1,7.171,1.372,15.54,105.7462,13.98,15.14,11.26,0,110.5,13.26,14.78,297.1
"2010-03-23 00:15:30",1785910,9.01,336.2,7.401,1.135,14.94,105.7465,13.98,15.17,11.45,0,110.5,13.26,14.78,298.2
"2010-03-23 00:16:00",1785911,9.02,335.1,4.964,0.842,14.31,105.7462,13.98,15.15,11.45,0,110.5,13.26,14.78,297.1
"2010-03-23 00:16:30",1785912,10.75,340.6,7.398,1.33,16.07,105.7465,13.98,15.2,11.65,0,110.5,13.26,14.78,302.6
"2010-03-23 00:17:00",1785913,9.86,338.3,6.285,1.315,13.93,105.7471,13.99,15.06,11.39,0,110.5,13.26,14.79,300.3
"2010-03-23 00:17:30",1785914,8.93,334.2,1.018,0.186,11.77,105.7446,13.98,14.97,11.23,0,110.5,13.29,14.78,296.2
"2010-03-23 00:18:00",1785915,8.74,336.6,2.155,0.351,11.74,105.7356,13.96,14.97,11.42,0,110.5,13.29,14.76,298.6
"2010-03-23 00:18:30",1785916,8.19,337.1,1.414,0.168,12.05,105.722,13.92,14.96,11.71,0,110.5,13.29,14.72,299.1
"2010-03-23 00:19:00",1785917,8.12,336.8,1.224,0.178,12.34,105.7139,13.9,14.95,11.78,0,110.5,13.29,14.70,298.8
"2010-03-23 00:19:30",1785918,8.23,335.9,1.057,0.317,12.66,105.7133,13.9,14.94,11.94,0,110.5,13.26,14.70,297.9
"2010-03-23 00:20:00",1785919,9.46,341.8,7.22,1.302,15.09,105.7133,13.9,15.1,11.94,0,110.5,13.26,14.70,303.8
"2010-03-23 00:20:30",1785920,8.22,339.1,2.622,0.374,12.91,105.7133,13.9,14.94,11.76,0,110.5,13.26,14.70,301.1
"2010-03-23 00:21:00",1785921,7.272,339.9,2.13,0.219,12.84,105.7133,13.9,14.93,12.08,0,110.5,13.29,14.70,301.9
"2010-03-23 00:21:30",1785922,6.872,338.9,2.233,0.263,12.9,105.7128,13.9,14.91,12.43,0,110.5,13.29,14.70,300.9
"2010-03-23 00:22:00",1785923,8.06,346.3,5.143,1.397,15.14,105.7113,13.89,15.05,13,0,110.5,13.25,14.69,308.3
"2010-03-23 00:22:30",1785924,8.1,347.9,5.357,1.385,14.17,105.7026,13.87,15.1,12.99,0,110.5,13.25,14.67,309.9
"2010-03-23 00:23:00",1785925,8.05,356.3,4.813,2.153,15.14,105.6826,13.82,15.03,12.87,0,110.5,13.25,14.62,318.3
"2010-03-23 00:23:30",1785926,6.388,355.2,4.801,1.426,13.51,105.6795,13.81,15.03,13.02,0,110.5,13.25,14.61,317.2
"2010-03-23 00:24:00",1785927,4.441,356.6,5.385,1.36,12.16,105.6795,13.81,14.88,12.83,0,110.5,13.29,14.61,318.6
"2010-03-23 00:24:30",1785928,5.134,352.4,3.683,0.788,11.95,105.6671,13.78,14.85,13,0,110.5,13.29,14.58,314.4
"2010-03-23 00:25:00",1785929,7.15,348.5,5.313,1.041,12.47,105.6519,13.74,14.84,13.15,0,110.5,13.25,14.54,310.5
"2010-03-23 00:25:30",1785930,7.612,357.6,6.8,1.649,14.75,105.646,13.73,14.97,13.33,0,110.5,13.25,14.53,319.6
"2010-03-23 00:26:00",1785931,5.77,351.8,4.197,1.036,12.52,105.6457,13.73,14.79,13.21,0,110.5,13.29,14.53,313.8
"2010-03-23 00:26:30",1785932,6.828,345.1,4.374,0.526,12.43,105.6457,13.73,14.79,13.35,0,110.5,13.29,14.53,307.1
"2010-03-23 00:27:00",1785933,8.05,340.7,2.287,0.285,12.56,105.642,13.72,14.8,13.51,0,110.5,13.3,14.52,302.7
"2010-03-23 00:27:30",1785934,9.15,346.1,6.544,1.522,14.87,105.6271,13.68,14.87,13.41,0,110.5,13.26,14.48,308.1
"2010-03-23 00:28:00",1785935,7.853,345.4,5.139,1.227,13.79,105.6144,13.65,14.9,13.2,0,110.5,13.26,14.44,307.4
"2010-03-23 00:28:30",1785936,7.462,350.8,4.675,1.466,13.49,105.6119,13.64,14.88,13.46,0,110.5,13.3,14.44,312.8
"2010-03-23 00:29:00",1785937,11.01,355.4,7.293,1.03,16.13,105.6119,13.64,14.89,13.03,0,110.5,13.26,14.44,317.4
"2010-03-23 00:29:30",1785938,8.27,352.9,5.32,2.616,14.09,105.6119,13.64,14.79,12.7,0,110.5,13.26,14.44,314.9
"2010-03-23 00:30:00",1785939,7.757,354.4,8.84,0.953,13.79,105.6105,13.64,14.85,13.5,0,110.5,13.26,14.43,316.4
"2010-03-23 00:30:30",1785940,8.7,355,8.62,1.433,14.01,105.5967,13.6,14.78,13.43,0,110.5,13.26,14.40,317.0
"2010-03-23 00:31:00",1785941,7.955,350.3,2.248,0.565,11.83,105.5795,13.56,14.65,13,0,110.5,13.3,14.36,312.3
"2010-03-23 00:31:30",1785942,8.73,346.7,1.697,0.252,12.05,105.5781,13.55,14.63,12.6,0,110.5,13.3,14.35,308.7
"2010-03-23 00:32:00",1785943,10.07,347.2,6.496,1.307,14.29,105.5778,13.55,14.78,12.52,0,110.5,13.27,14.35,309.2
"2010-03-23 00:32:30",1785944,7.969,348.3,10.3,0.979,13.71,105.5671,13.52,14.75,12.45,0,110.5,13.27,14.32,310.3
"2010-03-23 00:33:00",1785945,5.34,355.6,2.333,0.661,12.34,105.546,13.47,14.57,13.06,0,110.5,13.3,14.27,317.6
"2010-03-23 00:33:30",1785946,5.978,353.8,3.022,0.994,12.32,105.5443,13.47,14.56,13.11,0,110.5,13.3,14.26,315.8
"2010-03-23 00:34:00",1785947,7.167,349.5,1.683,0.469,12.54,105.5437,13.46,14.6,12.85,0,110.5,13.3,14.26,311.5
"2010-03-23 00:34:30",1785948,6.855,359.4,7.642,1.276,14.85,105.5279,13.42,14.63,12.99,0,110.5,13.27,14.22,321.4
"2010-03-23 00:35:00",1785949,6.455,358.6,5.998,1.638,14.58,105.5108,13.38,14.7,13.01,0,110.5,13.27,14.18,320.6
"2010-03-23 00:35:30",1785950,7.375,359.4,5.75,1.934,15.01,105.5105,13.38,14.66,12.94,0,110.5,13.27,14.18,321.4
"2010-03-23 00:36:00",1785951,6.318,3.017,6.913,1.7,14.57,105.493,13.33,14.51,12.86,0,110.5,13.27,14.13,325.0
"2010-03-23 00:36:30",1785952,5.723,359,4.307,1.601,13.18,105.477,13.29,14.59,12.86,0,110.5,13.27,14.09,321.0
"2010-03-23 00:37:00",1785953,7.897,359.6,6.981,1.337,14.33,105.4773,13.29,14.58,13.1,0,110.5,13.27,14.09,321.6
"2010-03-23 00:37:30",1785954,6.299,358,4.85,1.813,12.77,105.475,13.29,14.49,12.93,0,110.5,13.27,14.09,320.0
"2010-03-23 00:38:00",1785955,5.636,357.6,4.267,0.935,12.07,105.4609,13.25,14.38,12.73,0,110.5,13.3,14.05,319.6
"2010-03-23 00:38:30",1785956,6.91,353,2.504,1.057,11.82,105.447,13.22,14.35,12.75,0,110.5,13.3,14.01,315.0
"2010-03-23 00:39:00",1785957,8.02,354.3,7.755,0.872,13.61,105.447,13.22,14.47,13.02,0,110.5,13.26,14.01,316.3
"2010-03-23 00:39:30",1785958,6.543,356.2,5.83,1.04,13.24,105.4473,13.22,14.43,13.02,0,110.5,13.26,14.02,318.2
"2010-03-23 00:40:00",1785959,6.084,0.24,5.076,2.124,13.79,105.4429,13.21,14.34,12.96,0,110.5,13.26,14.00,322.2
"2010-03-23 00:40:30",1785960,5.498,356.5,2.845,0.833,12.63,105.4306,13.17,14.27,12.85,0,110.5,13.3,13.97,318.5
"2010-03-23 00:41:00",1785961,6.571,0.706,7.437,1.499,14.71,105.4165,13.14,14.4,13.03,0,110.5,13.27,13.94,322.7
"2010-03-23 00:41:30",1785962,4.601,2.128,5.593,1.188,13.5,105.4177,13.14,14.31,12.98,0,110.5,13.26,13.94,324.1
"2010-03-23 00:42:00",1785963,5.097,3.437,6.145,1.032,14.29,105.4198,13.15,14.45,13.09,0,110.5,13.27,13.94,325.4
"2010-03-23 00:42:30",1785964,6.148,2.813,9.76,0.909,13.92,105.4194,13.15,14.24,12.92,0,110.5,13.27,13.94,324.8
"2010-03-23 00:43:00",1785965,4.648,358.5,2.622,0.591,11.86,105.4215,13.15,14.19,12.9,0,110.5,13.3,13.95,320.5
"2010-03-23 00:43:30",1785966,5.917,2.431,5.365,1.646,13.75,105.4242,13.16,14.37,12.98,0,110.5,13.27,13.96,324.4
"2010-03-23 00:44:00",1785967,6.105,3.399,6.595,1.6,13.82,105.4236,13.16,14.28,12.82,0,110.5,13.27,13.95,325.4
"2010-03-23 00:44:30",1785968,4.977,0.599,4.778,1.272,12.84,105.4186,13.14,14.27,12.79,0,110.5,13.27,13.94,322.6
"2010-03-23 00:45:00",1785969,5.273,1.389,6.891,1.46,13.53,105.4079,13.12,14.21,12.73,0,110.5,13.27,13.91,323.4
"2010-03-23 00:45:30",1785970,4.892,357.2,2.032,0.535,12.06,105.4047,13.11,14.14,12.67,0,110.5,13.31,13.91,319.2
"2010-03-23 00:46:00",1785971,4.744,359.9,5.748,0.814,12.25,105.4046,13.11,14.14,12.75,0,110.5,13.31,13.91,321.9
"2010-03-23 00:46:30",1785972,4.605,359.4,2.61,0.621,12.5,105.4064,13.11,14.12,12.96,0,110.5,13.31,13.91,321.4
"2010-03-23 00:47:00",1785973,4.275,11.24,10.08,1.178,14.71,105.4073,13.12,14.29,13.28,0,110.5,13.28,13.91,333.2
"2010-03-23 00:47:30",1785974,6.57,24,6.834,1.408,15.3,105.4094,13.12,14.3,13.65,0,110.5,13.28,13.92,346.0
"2010-03-23 00:48:00",1785975,6.046,20.64,7.826,1.622,14.48,105.4076,13.12,14.28,14.04,0,110.5,13.28,13.91,342.6
"2010-03-23 00:48:30",1785976,4.41,14.64,5.713,1.235,12.3,105.4103,13.12,14.14,14.17,0,110.4,13.28,13.92,336.6
"2010-03-23 00:49:00",1785977,4.163,13.45,7.573,1.32,12.98,105.4103,13.12,14.18,14.29,0,110.5,13.28,13.92,335.5
"2010-03-23 00:49:30",1785978,4.895,14.3,8.43,0.913,13.57,105.4109,13.12,14.18,14.35,0,110.5,13.28,13.92,336.3
"2010-03-23 00:50:00",1785979,5.847,14.95,9.99,2.839,12.98,105.4109,13.12,14.27,14.47,0,110.5,13.28,13.92,337.0
"2010-03-23 00:50:30",1785980,7.469,21.76,10.34,2.065,12.82,105.4106,13.12,14.13,14.18,0,110.5,13.28,13.92,343.8
"2010-03-23 00:51:00",1785981,6.445,19.21,2.604,0.544,12.4,105.4047,13.11,14.18,14.23,0,110.5,13.32,13.91,341.2
"2010-03-23 00:51:30",1785982,6.725,18.13,5.816,0.931,12.61,105.3968,13.09,14.22,14.33,0,110.5,13.32,13.89,340.1
"2010-03-23 00:52:00",1785983,8.66,26.95,6.719,1.73,15.65,105.3804,13.05,14.26,14.1,0,110.5,13.28,13.84,349.0
"2010-03-23 00:52:30",1785984,5.558,15.97,7.989,1.565,15.11,105.3771,13.04,14.29,13.77,0,110.5,13.28,13.84,338.0
"2010-03-23 00:53:00",1785985,6.574,15.21,6.231,1.451,15.51,105.3771,13.04,14.24,13.65,0,110.5,13.28,13.84,337.2
"2010-03-23 00:53:30",1785986,4.351,3.075,4.319,0.846,12.1,105.3771,13.04,14.15,13.66,0,110.5,13.28,13.84,325.1
"2010-03-23 00:54:00",1785987,6.128,5.708,4.58,1.205,11.46,105.3726,13.03,14.05,13.65,0,110.5,13.32,13.82,327.7
"2010-03-23 00:54:30",1785988,8.4,18.66,4.363,0.603,11.75,105.3599,12.99,14.06,13.85,0,110.5,13.31,13.79,340.7
"2010-03-23 00:55:00",1785989,7.971,25.79,7.38,1.817,14.24,105.3441,12.95,14.08,14.05,0,110.5,13.27,13.75,347.8
"2010-03-23 00:55:30",1785990,5.578,12.09,9.48,1.033,14.1,105.343,12.95,14.23,14.15,0,110.4,13.27,13.75,334.1
"2010-03-23 00:56:00",1785991,6.358,24.99,11.4,1.68,14.15,105.3362,12.93,14.13,13.82,0,110.4,13.27,13.73,347.0
"2010-03-23 00:56:30",1785992,5.236,5.364,10.79,1.726,12.24,105.3185,12.89,14.04,14.12,0,110.4,13.28,13.68,327.4
"2010-03-23 00:57:00",1785993,6.666,4.702,7.392,1.552,15.38,105.3094,12.86,14.15,14.13,0,110.4,13.27,13.66,326.7
"2010-03-23 00:57:30",1785994,5.716,14.61,8.76,1.118,14.58,105.3094,12.86,14.13,13.72,0,110.4,13.27,13.66,336.6
"2010-03-23 00:58:00",1785995,4.796,10.37,5.53,1.052,11.47,105.3001,12.84,13.91,13.55,0,110.4,13.31,13.64,332.4
"2010-03-23 00:58:30",1785996,4.464,7.819,5.918,0.774,11.36,105.2765,12.78,13.9,13.26,0,110.4,13.31,13.58,329.8
"2010-03-23 00:59:00",1785997,4.665,9.08,6.801,1.045,11.57,105.2756,12.78,13.87,13.38,0,110.4,13.31,13.57,331.1
"2010-03-23 00:59:30",1785998,4.929,8.8,9.03,1.132,11.96,105.2745,12.77,13.85,13.51,0,110.4,13.32,13.57,330.8
"2010-03-23 01:00:00",1785999,4.982,10.58,6.251,1.564,14.76,105.2576,12.73,14.05,13.88,0,110.5,13.28,13.53,332.6
"2010-03-23 01:00:30",1786000,6.588,10.31,6.713,1.129,16.46,105.2418,12.69,14.08,13.51,0,110.4,13.28,13.49,332.3
"2010-03-23 01:01:00",1786001,6.066,1.304,5.921,1.206,13.78,105.243,12.69,13.87,12.95,0,110.4,13.28,13.49,323.3
"2010-03-23 01:01:30",1786002,7.636,7.955,6.133,1.274,15.96,105.2351,12.67,13.95,12.9,0,110.4,13.28,13.47,330.0
"2010-03-23 01:02:00",1786003,7.554,0.775,8.16,1.027,14.44,105.2114,12.61,14,12.92,0,110.4,13.28,13.41,322.8
"2010-03-23 01:02:30",1786004,7.56,356.6,5.427,1.09,13.35,105.213,12.62,13.82,12.78,0,110.4,13.28,13.41,318.6
"2010-03-23 01:03:00",1786005,6.217,355.5,2.401,0.961,11.74,105.2169,12.63,13.7,12.62,0,110.4,13.32,13.42,317.5
"2010-03-23 01:03:30",1786006,6.358,355,2.246,0.842,11.99,105.2079,12.6,13.72,12.68,0,110.4,13.32,13.40,317.0
"2010-03-23 01:04:00",1786007,8.43,359.6,7.342,1.285,14.54,105.1967,12.58,13.75,12.66,0,110.4,13.29,13.37,321.6
"2010-03-23 01:04:30",1786008,7.188,358.8,6.574,1.094,13.97,105.1961,12.57,13.86,12.78,0,110.4,13.29,13.37,320.8
"2010-03-23 01:05:00",1786009,7.926,1.595,6.753,1.405,15.03,105.1973,12.58,13.79,12.71,0,110.4,13.29,13.37,323.6
"2010-03-23 01:05:30",1786010,6.59,3.431,7.143,1.358,14.34,105.2014,12.59,13.67,12.65,0,110.4,13.29,13.38,325.4
"2010-03-23 01:06:00",1786011,7.713,3.428,6.611,1.631,15.05,105.1976,12.58,13.73,12.67,0,110.4,13.29,13.37,325.4
"2010-03-23 01:06:30",1786012,5.605,358.4,4.67,0.775,12.78,105.1825,12.54,13.74,12.74,0,110.4,13.29,13.34,320.4
"2010-03-23 01:07:00",1786013,5.789,356,1.869,0.53,11.8,105.1766,12.52,13.54,12.72,0,110.4,13.33,13.32,318.0
"2010-03-23 01:07:30",1786014,8.51,357.5,8.08,1.637,13.89,105.1756,12.52,13.62,12.78,0,110.4,13.29,13.32,319.5
"2010-03-23 01:08:00",1786015,6.372,1.727,7.702,1.283,13.87,105.1753,12.52,13.68,12.81,0,110.4,13.29,13.32,323.7
"2010-03-23 01:08:30",1786016,4.49,1.765,3.192,0.526,11.94,105.1759,12.52,13.51,12.87,0,110.4,13.33,13.32,323.8
"2010-03-23 01:09:00",1786017,5.476,11.32,9.61,1.611,12.97,105.1759,12.52,13.64,13.33,0,110.4,13.29,13.32,333.3
"2010-03-23 01:09:30",1786018,8.16,23.68,5.804,1.424,15.26,105.1756,12.52,13.72,13.95,0,110.4,13.29,13.32,345.7
"2010-03-23 01:10:00",1786019,8.45,30.77,6.337,1.37,15.4,105.1717,12.51,13.75,14.42,0,110.4,13.29,13.31,352.8
"2010-03-23 01:10:30",1786020,8.25,26.15,6.163,1.631,13.62,105.1548,12.47,13.5,14.4,0,110.4,13.29,13.26,348.1
"2010-03-23 01:11:00",1786021,7.385,24.37,6.12,1.24,12.8,105.1421,12.44,13.61,14.37,0,110.4,13.29,13.23,346.4
"2010-03-23 01:11:30",1786022,6.965,28.64,9.06,1.466,13.88,105.1421,12.44,13.59,14.21,0,110.4,13.29,13.23,350.6
"2010-03-23 01:12:00",1786023,6.75,21.18,1.898,0.569,11.82,105.1421,12.44,13.46,14.02,0,110.4,13.29,13.23,343.2
"2010-03-23 01:12:30",1786024,6.864,22.66,1.904,0.557,11.9,105.1373,12.42,13.43,13.8,0,110.4,13.32,13.22,344.7
"2010-03-23 01:13:00",1786025,7.239,22.58,6.2,1.227,13.74,105.1263,12.4,13.58,13.98,0,110.4,13.29,13.19,344.6
"2010-03-23 01:13:30",1786026,7.385,22.71,6.561,1.71,15.36,105.1105,12.36,13.62,14.21,0,110.3,13.29,13.15,344.7
"2010-03-23 01:14:00",1786027,6.672,24.36,5.575,1.096,14.22,105.1083,12.35,13.57,14.23,0,110.4,13.29,13.14,346.4
"2010-03-23 01:14:30",1786028,6.786,28.85,6.598,1.406,14.19,105.1083,12.35,13.5,14.27,0,110.3,13.29,13.14,350.9
"2010-03-23 01:15:00",1786029,6.386,25.96,5.597,1.086,12.52,105.1054,12.34,13.42,14.37,0,110.3,13.29,13.14,348.0
"2010-03-23 01:15:30",1786030,7.012,24.9,6.903,1.212,13.51,105.0925,12.31,13.51,14.76,0,110.3,13.29,13.10,346.9
"2010-03-23 01:16:00",1786031,6.382,20.7,2.077,0.543,11.57,105.075,12.26,13.34,15.05,0,110.3,13.33,13.06,342.7
"2010-03-23 01:16:30",1786032,6.398,18.59,1.324,0.61,11.84,105.0744,12.26,13.34,14.83,0,110.3,13.33,13.06,340.6
"2010-03-23 01:17:00",1786033,6.743,20.35,6.72,1.551,14.33,105.0744,12.26,13.47,14.54,0,110.3,13.3,13.06,342.4
"2010-03-23 01:17:30",1786034,6.438,22.5,6.646,1.634,14.43,105.0693,12.25,13.51,14.61,0,110.3,13.3,13.04,344.5
"2010-03-23 01:18:00",1786035,7.473,33.97,6.055,1.352,15.97,105.0561,12.22,13.5,14.8,0,110.3,13.31,13.01,356.0
"2010-03-23 01:18:30",1786036,7.462,33.29,8.21,1.525,15.24,105.0429,12.18,13.51,15.55,0,110.3,13.31,12.98,355.3
"2010-03-23 01:19:00",1786037,6.6,28.91,6.193,1.098,13.28,105.0418,12.18,13.46,15.84,0,110.3,13.31,12.97,350.9
"2010-03-23 01:19:30",1786038,6.373,31.69,7.326,1.305,13.46,105.0382,12.17,13.39,15.86,0,110.3,13.31,12.96,353.7
"2010-03-23 01:20:00",1786039,4.787,27.52,2.102,0.678,11.39,105.0166,12.11,13.22,15.4,0,110.3,13.34,12.91,349.5
"2010-03-23 01:20:30",1786040,6.071,27.89,6.298,1.449,13.13,105.0168,12.12,13.24,15.28,0,110.3,13.31,12.91,349.9
"2010-03-23 01:21:00",1786041,5.689,29.03,5.237,1.252,12.66,105.0165,12.11,13.3,15.87,0,110.3,13.31,12.91,351.0
"2010-03-23 01:21:30",1786042,6.001,33.81,6.189,1.318,13.66,105.0042,12.08,13.24,16.11,0,110.3,13.31,12.88,355.8
"2010-03-23 01:22:00",1786043,7.059,38.65,7.507,1.685,14.87,104.9833,12.03,13.36,16.35,0,110.3,13.31,12.82,0.7
"2010-03-23 01:22:30",1786044,9.05,46.72,5.084,1.026,16.4,104.9834,12.03,13.34,16.34,0,110.3,13.31,12.82,8.7
"2010-03-23 01:23:00",1786045,8.46,44.21,6.598,1.258,15.3,104.9655,11.98,13.38,16.33,0,110.3,13.31,12.78,6.2
"2010-03-23 01:23:30",1786046,8.17,40.77,4.77,1.158,12.42,104.9536,11.95,13.07,16.16,0,110.3,13.31,12.75,2.8
"2010-03-23 01:24:00",1786047,7.757,35.93,1.269,0.44,11.29,104.9535,11.95,13.05,16.16,0,110.3,13.35,12.75,357.9
"2010-03-23 01:24:30",1786048,9.27,42.29,8.16,1.49,13.65,104.9338,11.9,13.17,16.25,0,110.3,13.31,12.70,4.3
"2010-03-23 01:25:00",1786049,8.69,39.81,4.616,0.848,12.54,104.9331,11.9,13.13,16.26,0,110.3,13.31,12.69,1.8
"2010-03-23 01:25:30",1786050,10.39,46.58,7.279,1.354,14.21,104.935,11.91,13.16,16.25,0,110.3,13.31,12.70,8.6
"2010-03-23 01:26:00",1786051,11.91,54.63,6.064,1.282,16.62,104.9085,11.84,13.26,16.17,0,110.3,13.31,12.63,16.6
"2010-03-23 01:26:30",1786052,11.4,54.71,6.521,1.426,15.2,104.9052,11.83,13.17,15.77,0,110.3,13.31,12.62,16.7
"2010-03-23 01:27:00",1786053,8.3,47.62,6.152,1.161,11.91,104.9066,11.83,12.94,16.34,0,110.3,13.31,12.63,9.6
"2010-03-23 01:27:30",1786054,8.21,45.85,8.14,1.007,12.72,104.9069,11.83,12.92,17.46,0,110.3,13.31,12.63,7.8
"2010-03-23 01:28:00",1786055,9.97,47.15,5.348,1.88,12.39,104.8971,11.81,12.99,18.02,0,110.3,13.31,12.60,9.2
"2010-03-23 01:28:30",1786056,11.42,53.04,6.065,1.437,14.82,104.8784,11.76,12.89,16.18,0,110.3,13.31,12.55,15.0
"2010-03-23 01:29:00",1786057,10.81,51.18,7.201,1.159,13.96,104.8731,11.75,13.02,15.46,0,110.3,13.31,12.54,13.2
"2010-03-23 01:29:30",1786058,11.44,57.52,5.84,0.964,16.38,104.8736,11.75,12.98,14.91,0,110.3,13.31,12.54,19.5
"2010-03-23 01:30:00",1786059,10.3,48.38,6.183,1.445,14.5,104.8821,11.77,12.99,14.88,0,110.3,13.31,12.56,10.4
"2010-03-23 01:30:30",1786060,8.66,43.18,1.392,0.224,11.6,104.8914,11.79,12.83,15.43,0,110.3,13.34,12.59,5.2
"2010-03-23 01:31:00",1786061,8.39,38.04,9.99,1.323,11.22,104.8923,11.8,12.77,15.97,0,110.3,13.34,12.59,0.0
"2010-03-23 01:31:30",1786062,9,45.52,9.33,2.108,13.68,104.8877,11.79,12.91,17.16,0,110.3,13.31,12.58,7.5
"2010-03-23 01:32:00",1786063,9.58,50.56,6.57,1.13,13.54,104.8796,11.76,12.88,16.5,0,110.3,13.31,12.56,12.6
"2010-03-23 01:32:30",1786064,10.12,53.5,7.942,1.357,15.45,104.8748,11.75,13.01,16.29,0,110.3,13.31,12.55,15.5
"2010-03-23 01:33:00",1786065,8.18,45.98,6.314,1.22,15.67,104.8731,11.75,13.01,16.29,0,110.3,13.31,12.54,8.0
"2010-03-23 01:33:30",1786066,7.465,49.81,8.95,1.561,14.17,104.8731,11.75,12.96,16.11,0,110.3,13.31,12.54,11.8
"2010-03-23 01:34:00",1786067,8.18,44.65,7.451,1.092,11.84,104.8731,11.75,12.74,16.36,0,110.3,13.31,12.54,6.7
"2010-03-23 01:34:30",1786068,6.358,34.45,6.051,1.186,10.9,104.868,11.73,12.73,16.91,0,110.3,13.35,12.53,356.5
"2010-03-23 01:35:00",1786069,8.21,39.45,8.1,1.612,13.44,104.8455,11.68,12.87,17.46,0,110.3,13.32,12.47,1.5
"2010-03-23 01:35:30",1786070,6.78,25.42,5.074,1.017,12.51,104.8392,11.66,12.82,17.06,0,110.3,13.32,12.45,347.4
"2010-03-23 01:36:00",1786071,8.01,37.14,8.92,1.623,15.06,104.8353,11.65,12.94,16.92,0,110.3,13.32,12.44,359.1
"2010-03-23 01:36:30",1786072,9.24,48.85,7.944,1.559,15.74,104.8116,11.59,12.94,17.16,0,110.3,13.32,12.38,10.8
"2010-03-23 01:37:00",1786073,7.406,35.25,9.27,1.436,13.54,104.8054,11.57,12.81,16.97,0,110.3,13.32,12.37,357.2
"2010-03-23 01:37:30",1786074,7.631,25.33,5.909,0.942,12.12,104.8015,11.56,12.63,16.46,0,110.3,13.32,12.36,347.3
"2010-03-23 01:38:00",1786075,6.613,27.31,5.737,1.021,11.98,104.7764,11.5,12.72,16.41,0,110.3,13.32,12.29,349.3
"2010-03-23 01:38:30",1786076,8.49,37.93,6.22,1.604,12.87,104.7716,11.49,12.63,16.44,0,110.3,13.32,12.28,359.9
"2010-03-23 01:39:00",1786077,8.64,46.71,8.99,1.555,14.68,104.7719,11.49,12.72,16.59,0,110.3,13.33,12.28,8.7
"2010-03-23 01:39:30",1786078,9.78,51.04,7.551,1.27,15.2,104.7677,11.48,12.75,16.8,0,110.3,13.33,12.27,13.0
"2010-03-23 01:40:00",1786079,9.49,50.03,7.05,1.334,15.21,104.761,11.46,12.77,16.89,0,110.3,13.33,12.25,12.0
"2010-03-23 01:40:30",1786080,8.54,48.57,4.929,1.288,12.46,104.7453,11.42,12.67,16.93,0,110.3,13.33,12.21,10.6
"2010-03-23 01:41:00",1786081,9.16,46.37,8.04,2.308,12.7,104.7448,11.42,12.51,16.84,0,110.3,13.32,12.21,8.4
"2010-03-23 01:41:30",1786082,8.58,57.64,8.98,1.095,12.67,104.746,11.42,12.62,16.64,0,110.3,13.33,12.21,19.6
"2010-03-23 01:42:00",1786083,9.27,65.32,7.102,1.297,13.29,104.7472,11.43,12.52,15.95,0,110.3,13.33,12.22,27.3
"2010-03-23 01:42:30",1786084,9.53,67.24,6.536,1.376,14.73,104.749,11.43,12.65,15.92,0,110.3,13.33,12.22,29.2
"2010-03-23 01:43:00",1786085,9.94,67.78,9.84,1.499,15.95,104.7528,11.44,12.72,15.92,0,110.3,13.33,12.23,29.8
"2010-03-23 01:43:30",1786086,9.25,64.7,6.262,1.142,14.18,104.7594,11.46,12.56,15.21,0,110.3,13.33,12.25,26.7
"2010-03-23 01:44:00",1786087,8.82,60.94,4.377,0.834,11.97,104.7823,11.52,12.55,15.17,0,110.3,13.33,12.31,22.9
"2010-03-23 01:44:30",1786088,9.46,61.55,7.583,1.372,13.97,104.7952,11.55,12.56,15.31,0,110.3,13.32,12.34,23.5
"2010-03-23 01:45:00",1786089,9.32,59.73,6.42,1.302,12.74,104.797,11.55,12.51,15.04,0,110.3,13.32,12.35,21.7
"2010-03-23 01:45:30",1786090,8.83,61.97,6.38,1.012,13.04,104.8005,11.56,12.64,15.12,0,110.3,13.32,12.35,24.0
"2010-03-23 01:46:00",1786091,8.04,62.02,11.29,1.881,13.94,104.802,11.57,12.64,15.04,0,110.3,13.32,12.36,24.0
"2010-03-23 01:46:30",1786092,8.82,48.37,8.42,1.231,15.43,104.8179,11.61,12.75,15.39,0,110.3,13.32,12.40,10.4
"2010-03-23 01:47:00",1786093,7.226,58.73,7.009,1.56,14.65,104.8318,11.64,12.76,15.4,0,110.3,13.32,12.43,20.7
"2010-03-23 01:47:30",1786094,8.03,59.57,8.92,1.139,12.73,104.8341,11.65,12.55,15.08,0,110.3,13.32,12.44,21.6